Wind_Speed
18 18 18 20 19 17 16 14 13 12 12 12 14 13 13 13 15 15 13 15 16 13 14 15 16 15 15 17 15 19 25 21 17 12 11 13 8 6 6 2 6 11 14 13 18
15 18 18 20 20 19 18 17 15 13 12 12 13 13 13 13 14 13 16 15 14 15 14 15 13 13 16 18 15 16 27 22 19 18 11 13 11 5 4 5 8 10 9 18 13
13 15 18 19 21 22 21 19 18 15 14 13 13 14 13 14 14 15 16 16 14 15 16 14 14 14 17 16 15 14 28 24 21 20 16 11 10 8 5 4 8 11 17 20 14
13 14 15 17 19 20 21 21 20 18 16 15 14 14 14 15 16 17 16 16 16 16 17 14 15 16 15 18 17 17 35 27 24 25 23 22 25 3 2 7 6 10 14 15 9
13 15 15 17 17 18 20 20 21 20 18 17 16 16 15 17 17 17 17 17 17 17 18 17 18 19 19 18 18 20 40 35 32 29 25 26 24 19 3 8 6 7 8 8 9
15 15 17 18 19 20 20 21 21 21 20 19 18 17 17 18 20 18 18 17 17 18 19 22 19 15 16 14 14 23 39 41 35 27 24 19 16 18 5 4 8 4 4 6 4
15 15 16 18 19 21 23 23 23 24 23 22 20 20 18 17 19 20 19 19 19 19 20 18 14 15 15 15 14 16 30 42 39 31 26 21 17 10 14 11 14 2 4 7 8
13 14 15 17 18 19 21 23 24 25 25 25 25 22 22 20 22 22 19 20 20 20 20 19 15 17 18 19 16 13 17 41 40 35 27 29 14 12 10 10 9 10 9 15 16
12 13 14 15 16 17 19 20 21 23 24 25 25 23 23 21 20 21 22 23 21 20 20 19 17 17 16 13 13 17 19 31 44 37 36 35 26 24 27 23 25 23 23 23 21
11 13 13 14 14 15 16 17 18 19 21 22 22 22 22 21 22 25 23 22 22 21 20 20 18 16 12 10 13 17 22 27 29 42 41 37 31 31 30 29 32 30 29 30 25
13 13 12 13 14 14 15 15 16 17 20 20 21 20 20 21 23 22 21 21 22 22 23 20 19 18 19 24 23 26 30 33 24 33 36 29 29 29 30 30 30 32 32 30 28
15 14 14 13 13 14 15 16 14 14 16 17 18 18 21 21 21 21 19 22 21 23 20 21 23 23 23 25 27 29 32 32 32 26 24 23 28 28 31 34 35 35 36 33 31
16 16 15 14 15 15 16 13 12 16 15 16 16 17 18 18 18 20 20 20 23 21 20 23 25 27 28 31 31 30 29 34 26 20 19 19 28 35 34 35 35 35 34 36 36
17 17 16 16 16 15 14 12 13 14 13 14 14 15 17 16 17 20 20 21 22 24 23 24 25 24 28 29 29 31 31 32 31 27 22 28 29 33 40 38 40 38 38 39 39
17 18 17 18 16 13 15 15 13 15 14 15 16 15 15 16 16 21 20 20 22 25 23 23 24 26 27 26 28 30 30 33 37 34 29 32 39 38 38 40 40 39 38 40 43
18 18 19 19 17 17 19 16 15 16 16 14 16 17 17 16 17 19 18 19 20 21 16 22 27 29 30 30 30 30 30 26 28 31 36 38 41 47 47 45 45 46 47 48 50
21 20 21 20 20 22 19 18 19 21 19 18 18 18 18 18 18 19 20 19 20 22 21 24 27 30 31 30 31 31 30 27 28 30 36 38 43 51 52 52 55 55 55 53 55
20 22 23 22 24 23 21 21 22 24 21 18 18 19 19 21 21 22 21 19 20 20 22 26 29 32 34 33 33 32 32 28 27 30 36 40 44 46 47 49 53 55 56 53 56
20 22 23 22 25 23 23 23 25 25 24 19 20 23 23 19 21 22 23 22 19 20 23 26 31 33 34 36 35 35 34 32 31 34 35 39 43 45 44 47 46 43 45 49 53
21 21 25 23 23 23 24 25 25 26 25 22 23 24 25 25 24 24 24 21 18 18 23 28 32 34 35 37 39 40 38 38 38 37 37 37 39 42 42 42 44 46 44 46 46
22 23 23 24 25 27 26 28 27 25 25 26 27 29 29 30 31 29 29 26 20 19 20 26 32 35 37 38 39 38 39 39 39 40 39 44 40 38 42 45 48 52 53 54 53
22 24 24 23 23 26 28 27 26 26 28 30 31 31 32 31 33 34 32 28 24 21 23 24 29 34 38 39 39 40 41 40 40 43 45 43 44 42 43 43 45 46 49 50 51
17 20 22 23 24 26 25 27 26 26 28 30 31 32 33 34 36 36 34 32 30 28 27 28 33 35 36 37 38 40 40 40 41 41 44 43 42 43 44 44 46 48 50 52 54
14 17 20 23 26 27 26 28 27 27 28 30 33 35 36 36 36 36 35 35 34 32 31 31 33 34 35 37 38 38 38 38 38 38 40 42 44 45 47 49 51 53 55 57 59
13 13 16 19 21 23 25 28 29 28 28 29 31 34 36 37 36 37 36 35 35 35 35 34 34 35 36 37 39 39 40 40 40 41 43 44 45 47 49 51 55 57 59 62 64
10 12 12 14 17 20 23 25 26 26 26 27 29 31 32 34 36 36 36 38 39 38 38 39 39 38 38 39 39 41 43 44 45 46 48 49 51 51 52 55 57 59 60 62 65
12 13 16 17 19 22 25 28 29 29 30 32 33 35 36 36 36 37 38 39 39 39 41 42 40 39 40 40 42 44 45 46 47 48 49 49 50 52 53 54 55 57 59 60 59
Wind_Direction
219 220 219 218 220 225 234 239 244 240 235 237 238 239 235 232 230 230 232 228 236 233 235 243 242 245 237 239 224 200 177 176 201 199 216 249 207 157 141 321 313 0 360 350 341
220 221 222 220 223 225 230 235 236 241 239 235 239 238 240 235 235 236 233 236 239 236 236 240 239 236 229 229 221 201 178 187 202 211 204 234 239 190 218 266 301 348 353 3 332
221 223 223 223 223 224 227 232 233 234 240 240 238 236 238 240 240 236 236 236 235 237 242 240 233 229 229 227 214 196 178 191 208 213 223 233 219 210 216 291 329 346 348 350 339
224 227 228 227 226 226 225 228 231 232 234 239 242 241 242 244 241 237 236 238 236 237 241 239 232 232 225 224 209 190 186 190 207 227 222 231 253 305 341 281 325 1 33 29 323
231 228 230 231 231 229 229 231 231 228 230 232 239 245 244 248 247 240 238 238 236 234 237 234 229 228 225 223 209 189 189 198 213 222 236 240 253 267 290 1 347 15 26 27 22
235 234 230 233 235 236 235 233 235 236 233 235 235 242 247 248 248 243 241 236 235 233 233 236 236 240 242 239 221 205 202 203 210 212 224 236 243 266 282 293 249 349 354 1 21
238 238 235 233 234 235 236 236 237 238 237 237 236 240 244 243 243 242 240 236 232 237 237 241 231 229 230 234 220 210 208 214 214 211 223 234 248 276 286 287 245 124 311 351 353
238 239 240 240 239 239 239 238 239 239 242 240 239 238 241 234 237 239 236 239 235 231 236 235 231 233 224 224 215 203 209 215 215 216 225 237 233 242 237 278 213 228 231 213 221
245 243 243 242 243 243 244 242 241 239 240 243 242 239 238 236 238 245 232 236 235 235 236 237 228 229 236 231 220 213 202 206 213 214 220 232 232 233 223 217 206 211 224 221 226
246 244 245 246 245 244 244 244 244 242 240 239 244 241 238 233 229 232 235 234 235 236 232 233 230 226 218 209 207 212 205 192 191 213 223 233 229 232 215 217 208 223 235 246 232
243 246 243 244 243 244 244 242 240 239 235 233 232 237 237 234 229 229 232 235 236 235 233 232 229 221 209 212 210 199 187 170 187 192 207 210 214 212 216 216 224 231 234 240 239
242 244 242 240 238 239 241 240 243 246 243 242 238 232 234 235 236 234 228 229 228 231 231 229 226 224 215 225 222 216 192 177 194 200 210 208 209 215 214 213 221 224 233 241 255
241 242 243 242 241 239 243 244 239 240 239 240 237 234 238 239 241 239 230 231 235 233 229 234 233 228 227 227 224 224 210 191 211 212 224 229 215 218 222 219 223 233 241 245 250
239 241 240 242 243 244 248 244 243 245 242 240 237 233 230 233 234 237 236 233 231 232 228 234 241 243 239 234 231 229 225 208 202 213 233 231 231 226 231 238 233 237 245 247 249
236 239 240 239 241 239 239 237 238 238 242 242 239 234 231 225 224 238 235 236 236 238 229 238 242 244 249 248 245 235 234 220 222 219 240 239 235 234 235 235 241 244 252 255 254
239 239 239 238 238 236 238 239 235 238 237 238 236 237 236 233 225 231 238 237 236 241 234 232 240 244 245 246 243 242 236 241 240 240 236 237 238 240 240 243 244 245 249 252 256
241 239 238 238 236 239 243 246 244 243 241 238 240 241 237 234 234 236 236 236 240 241 238 233 233 242 247 249 245 245 243 246 247 243 244 241 240 243 243 246 248 248 250 256 260
244 238 240 239 239 241 244 248 251 253 249 246 252 251 245 244 242 243 243 246 245 241 239 236 239 240 246 249 250 250 251 247 250 248 246 246 246 249 251 251 249 251 254 255 250
246 240 240 238 240 241 242 244 249 252 257 252 250 255 257 250 253 253 254 250 254 255 246 239 242 249 250 249 253 254 252 254 254 258 256 253 253 257 256 254 254 258 257 258 258
248 245 243 241 243 242 241 242 247 250 256 254 255 256 265 269 263 264 264 265 268 258 254 251 247 246 245 247 251 252 256 257 262 262 259 259 258 259 261 262 261 262 261 263 267
248 246 248 247 244 244 243 245 244 250 255 257 254 256 257 263 267 267 268 268 266 259 256 252 251 251 250 249 251 253 255 254 259 257 262 259 254 266 272 272 269 268 268 269 271
251 249 252 254 252 249 248 251 252 251 254 256 257 259 261 262 264 267 270 270 267 258 247 249 252 252 254 254 253 253 255 258 259 264 269 277 280 277 274 272 271 273 273 274 274
260 255 254 255 256 257 258 259 257 254 253 255 259 261 261 262 263 268 273 273 268 263 256 249 251 255 256 259 262 263 264 264 264 265 267 271 272 272 271 272 272 272 273 274 277
264 260 258 254 255 259 262 263 263 260 255 253 254 258 261 261 262 264 265 268 270 268 264 260 258 258 260 263 263 263 264 263 264 265 266 268 271 273 275 277 279 279 280 279 279
274 269 264 263 265 266 265 266 267 266 262 259 257 257 260 261 262 262 262 263 263 264 262 260 259 257 257 259 261 263 263 262 263 266 267 270 273 275 277 278 279 280 281 283 284
283 281 275 274 272 269 268 268 268 269 268 265 261 259 257 258 259 259 259 258 258 258 260 259 260 261 261 261 262 264 265 267 268 270 272 274 275 276 277 279 279 280 281 283 284
293 290 286 281 277 275 274 273 271 267 264 262 260 258 258 257 258 257 256 256 258 259 259 260 261 262 263 263 264 265 267 270 272 274 276 276 276 277 279 281 283 285 286 287 289
Height
5849 5850 5852 5854 5856 5858 5860 5861 5861 5862 5863 5864 5865 5866 5867 5868 5869 5869 5870 5871 5870 5872 5872 5872 5873 5875 5877 5878 5881 5883 5887 5888 5888 5891 5891 5892 5891 5892 5894 5896 5896 5898 5898 5899 5897
5846 5847 5849 5851 5853 5855 5857 5858 5859 5860 5861 5862 5863 5864 5864 5865 5866 5868 5868 5868 5869 5869 5870 5870 5873 5873 5874 5875 5880 5882 5885 5886 5887 5888 5890 5890 5888 5890 5894 5895 5896 5898 5899 5899 5896
5843 5844 5846 5848 5850 5852 5854 5856 5857 5858 5858 5859 5860 5861 5862 5862 5864 5864 5865 5865 5866 5867 5867 5869 5871 5871 5872 5874 5879 5882 5884 5884 5884 5886 5887 5887 5886 5889 5892 5893 5895 5897 5897 5898 5898
5841 5842 5843 5845 5847 5848 5850 5852 5853 5854 5856 5857 5857 5858 5859 5860 5862 5861 5862 5863 5864 5864 5865 5867 5868 5869 5870 5872 5875 5879 5880 5882 5883 5881 5884 5883 5882 5885 5890 5894 5895 5895 5897 5899 5899
5838 5839 5841 5842 5844 5845 5847 5849 5850 5851 5852 5854 5854 5855 5855 5857 5857 5857 5858 5859 5861 5861 5862 5864 5864 5865 5866 5868 5872 5875 5878 5877 5877 5879 5880 5881 5884 5885 5888 5892 5893 5892 5895 5899 5899
5835 5836 5837 5839 5840 5842 5843 5845 5846 5847 5849 5850 5850 5851 5852 5854 5853 5855 5856 5856 5857 5858 5859 5859 5862 5865 5866 5868 5872 5873 5872 5875 5876 5879 5880 5881 5883 5885 5889 5891 5891 5892 5895 5897 5899
5831 5832 5834 5835 5836 5837 5839 5840 5842 5843 5845 5845 5846 5846 5848 5851 5850 5851 5852 5853 5855 5856 5856 5858 5860 5862 5864 5865 5868 5872 5874 5874 5876 5878 5881 5880 5883 5886 5888 5889 5889 5893 5895 5896 5898
5828 5829 5830 5831 5832 5833 5834 5835 5836 5838 5840 5840 5841 5842 5844 5845 5845 5847 5848 5850 5851 5852 5853 5855 5857 5859 5860 5863 5865 5868 5871 5873 5876 5877 5880 5880 5880 5874 5882 5887 5889 5889 5885 5880 5881
5825 5826 5826 5827 5828 5828 5829 5830 5831 5833 5834 5836 5837 5838 5840 5841 5842 5844 5845 5845 5848 5849 5850 5852 5854 5856 5858 5861 5863 5864 5866 5869 5872 5872 5871 5871 5872 5872 5872 5874 5875 5875 5873 5875 5875
5822 5822 5822 5823 5824 5824 5825 5826 5827 5828 5830 5831 5833 5836 5837 5837 5838 5838 5839 5842 5843 5845 5847 5849 5851 5854 5855 5857 5859 5859 5860 5861 5862 5863 5865 5866 5868 5867 5865 5868 5869 5870 5867 5869 5870
5818 5819 5819 5820 5820 5820 5821 5822 5824 5825 5825 5826 5828 5830 5831 5832 5834 5835 5837 5838 5839 5841 5842 5845 5847 5848 5848 5849 5852 5853 5856 5858 5853 5857 5861 5863 5864 5862 5860 5860 5862 5862 5861 5862 5865
5815 5815 5816 5816 5816 5817 5817 5818 5820 5822 5822 5822 5824 5825 5826 5827 5830 5831 5833 5835 5835 5835 5839 5841 5841 5842 5844 5846 5848 5848 5852 5855 5850 5853 5856 5859 5860 5860 5858 5856 5855 5856 5858 5859 5861
5811 5811 5812 5813 5813 5813 5814 5816 5817 5817 5819 5819 5821 5822 5823 5825 5826 5827 5829 5830 5831 5833 5834 5835 5836 5837 5837 5838 5841 5844 5849 5851 5847 5845 5847 5851 5855 5854 5853 5851 5851 5852 5853 5854 5856
5806 5807 5808 5809 5811 5811 5812 5814 5814 5815 5815 5817 5818 5818 5819 5821 5822 5823 5824 5826 5827 5827 5830 5830 5831 5834 5834 5836 5838 5838 5841 5847 5847 5844 5847 5847 5847 5845 5845 5847 5847 5848 5847 5847 5849
5802 5803 5804 5804 5806 5808 5808 5808 5809 5811 5812 5814 5813 5814 5816 5817 5819 5817 5819 5821 5821 5822 5826 5828 5827 5827 5830 5832 5833 5836 5836 5840 5842 5843 5841 5841 5841 5841 5842 5841 5841 5841 5841 5841 5840
5798 5798 5799 5801 5803 5803 5802 5805 5805 5808 5807 5808 5808 5809 5811 5813 5814 5813 5815 5817 5818 5818 5822 5822 5822 5823 5824 5827 5829 5831 5832 5832 5834 5834 5836 5835 5834 5831 5833 5834 5835 5836 5836 5836 5835
5793 5794 5795 5796 5798 5798 5799 5801 5802 5800 5804 5806 5806 5806 5808 5809 5809 5809 5810 5812 5813 5814 5816 5817 5817 5817 5818 5820 5823 5824 5825 5826 5826 5825 5826 5827 5826 5822 5824 5825 5826 5826 5827 5828 5828
5787 5788 5789 5791 5792 5794 5796 5797 5796 5794 5798 5802 5802 5802 5804 5804 5804 5804 5805 5806 5807 5808 5810 5811 5811 5811 5812 5814 5816 5817 5819 5820 5818 5818 5819 5818 5815 5816 5815 5816 5817 5818 5818 5818 5819
5782 5783 5783 5786 5787 5789 5791 5791 5790 5791 5792 5795 5796 5795 5796 5799 5799 5799 5800 5802 5803 5803 5805 5804 5804 5805 5807 5807 5809 5809 5812 5813 5813 5812 5810 5809 5808 5808 5808 5809 5810 5810 5810 5810 5810
5777 5778 5778 5781 5782 5783 5784 5785 5786 5786 5787 5789 5789 5790 5789 5790 5792 5792 5793 5796 5797 5797 5797 5797 5798 5797 5799 5801 5801 5802 5804 5805 5804 5803 5802 5801 5800 5799 5800 5801 5801 5802 5802 5800 5799
5772 5772 5773 5774 5776 5777 5778 5779 5781 5783 5783 5783 5783 5783 5783 5783 5783 5785 5786 5789 5790 5791 5790 5790 5789 5791 5791 5792 5794 5795 5795 5796 5796 5795 5794 5794 5793 5795 5794 5792 5790 5789 5788 5787 5787
5766 5768 5768 5770 5771 5771 5772 5773 5776 5778 5778 5777 5776 5777 5777 5777 5775 5776 5777 5780 5782 5784 5783 5783 5782 5781 5782 5783 5785 5786 5787 5788 5788 5787 5785 5783 5784 5785 5783 5781 5778 5777 5774 5772 5770
5762 5763 5763 5764 5764 5765 5767 5767 5769 5771 5771 5771 5770 5769 5769 5769 5768 5768 5769 5771 5772 5773 5774 5775 5774 5774 5775 5777 5777 5777 5778 5779 5779 5778 5775 5775 5775 5773 5772 5769 5766 5765 5762 5761 5759
5758 5758 5758 5759 5758 5759 5760 5760 5760 5762 5763 5762 5761 5760 5760 5760 5761 5761 5761 5761 5762 5763 5764 5765 5767 5767 5768 5767 5768 5768 5768 5768 5768 5767 5766 5764 5762 5762 5761 5759 5756 5752 5749 5747 5745
5754 5754 5754 5754 5753 5753 5754 5753 5752 5753 5753 5753 5753 5753 5751 5750 5751 5751 5751 5752 5753 5752 5753 5755 5756 5756 5757 5758 5757 5756 5756 5756 5757 5756 5756 5755 5753 5752 5750 5748 5744 5740 5736 5731 5728
5751 5751 5750 5750 5749 5748 5746 5745 5745 5744 5744 5744 5743 5742 5742 5742 5741 5741 5741 5741 5740 5741 5742 5743 5744 5746 5747 5747 5747 5746 5745 5744 5744 5744 5744 5743 5741 5739 5736 5734 5730 5728 5724 5720 5714
5748 5747 5745 5744 5743 5741 5739 5737 5736 5736 5735 5733 5733 5732 5731 5731 5731 5731 5729 5729 5730 5731 5731 5732 5735 5737 5737 5737 5737 5737 5736 5735 5733 5731 5730 5730 5729 5727 5724 5721 5717 5713 5710 5705 5700